Location: ?????
(44.4284°N, 135.2222°E)
Time: 13:49:51
(UTC+00:00)

CZ-4C R/B - Pass Details

Date: 19 May 2025
Orbit: 425 x 537 km, 98.0° (Epoch: 19 June)

Event Time Altitude Azimuth Distance (km) Brightness Sun altitude
Rises 13:22:44 0° 14° (NNE) 2,600 7.6 -22.3°
Reaches altitude 10° 13:24:52 10° 16° (NNE) 1,692 6.5 -22.4°
Enters shadow 13:27:56 60° 33° (NNE) 557 3.4 -22.6°
